• In Austria
  • List of Countries
  • For 7 days
  • Water Temperature
  • Satellite Maps
  • Weather Map
  • News
  • Weather Widgets
  • user-avatar
    Login

    Hourly Weather Chihachi

    Today, 22 September, Saturday

    Time Temperature Precipitation Wind Pressure Humidity
    00:00 +17°C° 0 mm 3 mps 744 mmHg 87%
    01:00 +17°C° 0 mm 3 mps 744 mmHg 85%
    02:00 +16°C° 0 mm 3 mps 743 mmHg 83%
    03:00 +15°C° 0 mm 4 mps 743 mmHg 81%
    04:00 +15°C° 0 mm 4 mps 742 mmHg 80%
    05:00 +15°C° 0 mm 4 mps 742 mmHg 78%
    06:00 +16°C° 0 mm 5 mps 741 mmHg 74%
    07:00 +17°C° 0 mm 5 mps 741 mmHg 70%
    08:00 +19°C° 0 mm 5 mps 740 mmHg 65%
    09:00 +20°C° 0 mm 6 mps 740 mmHg 60%
    10:00 +22°C° 0 mm 6 mps 740 mmHg 54%
    11:00 +23°C° 0 mm 6 mps 740 mmHg 48%
    12:00 +23°C° 0.2 mm 6 mps 740 mmHg 52%
    13:00 +22°C° 0.2 mm 6 mps 740 mmHg 56%
    14:00 +21°C° 0.2 mm 6 mps 740 mmHg 61%
    15:00 +19°C° 0.3 mm 5 mps 740 mmHg 70%
    16:00 +15°C° 0.3 mm 4 mps 740 mmHg 79%
    17:00 +12°C° 0.3 mm 3 mps 741 mmHg 88%
    18:00 +12°C° 0.4 mm 3 mps 741 mmHg 89%
    19:00 +11°C° 0.4 mm 3 mps 741 mmHg 91%
    20:00 +10°C° 0.4 mm 2 mps 742 mmHg 92%
    21:00 +10°C° 0.5 mm 2 mps 742 mmHg 92%
    22:00 +10°C° 0.5 mm 3 mps 742 mmHg 92%
    23:00 +10°C° 0.5 mm 3 mps 742 mmHg 92%

    Tomorrow, 23 September, Sunday

    Time Temperature Precipitation Wind Pressure Humidity
    00:00 +10°C° 0.2 mm 3 mps 742 mmHg 93%
    01:00 +10°C° 0.2 mm 3 mps 742 mmHg 93%
    02:00 +10°C° 0.2 mm 2 mps 742 mmHg 94%
    03:00 +9°C° 0 mm 2 mps 741 mmHg 94%
    04:00 +9°C° 0 mm 2 mps 741 mmHg 95%
    05:00 +8°C° 0 mm 2 mps 741 mmHg 96%
    06:00 +9°C° 0 mm 3 mps 740 mmHg 94%
    07:00 +9°C° 0 mm 3 mps 740 mmHg 92%
    08:00 +9°C° 0 mm 3 mps 740 mmHg 90%
    09:00 +11°C° 0 mm 4 mps 740 mmHg 82%
    10:00 +12°C° 0 mm 4 mps 740 mmHg 75%
    11:00 +13°C° 0 mm 5 mps 740 mmHg 67%
    12:00 +13°C° 0.2 mm 5 mps 739 mmHg 65%
    13:00 +14°C° 0.2 mm 5 mps 739 mmHg 63%
    14:00 +14°C° 0.2 mm 5 mps 739 mmHg 61%
    15:00 +13°C° 0.2 mm 4 mps 739 mmHg 66%
    16:00 +12°C° 0.2 mm 3 mps 739 mmHg 71%
    17:00 +11°C° 0.2 mm 3 mps 739 mmHg 75%
    18:00 +10°C° 0.1 mm 3 mps 739 mmHg 80%
    19:00 +9°C° 0.1 mm 3 mps 739 mmHg 84%
    20:00 +8°C° 0.1 mm 3 mps 739 mmHg 88%
    21:00 +8°C° 0 mm 3 mps 739 mmHg 89%
    22:00 +8°C° 0 mm 3 mps 739 mmHg 90%
    23:00 +8°C° 0 mm 3 mps 739 mmHg 90%

    Day after tomorrow, 24 September, Monday

    Time Temperature Precipitation Wind Pressure Humidity
    00:00 +7°C° 0 mm 3 mps 739 mmHg 92%
    01:00 +7°C° 0 mm 3 mps 739 mmHg 93%
    02:00 +7°C° 0 mm 3 mps 739 mmHg 94%
    03:00 +6°C° 0 mm 2 mps 739 mmHg 95%
    04:00 +6°C° 0 mm 2 mps 738 mmHg 96%
    05:00 +6°C° 0 mm 2 mps 738 mmHg 96%
    06:00 +6°C° 0 mm 2 mps 738 mmHg 94%
    07:00 +7°C° 0 mm 2 mps 738 mmHg 91%
    08:00 +8°C° 0 mm 2 mps 738 mmHg 88%
    09:00 +9°C° 0 mm 2 mps 737 mmHg 84%
    10:00 +10°C° 0 mm 2 mps 737 mmHg 80%
    11:00 +12°C° 0 mm 2 mps 736 mmHg 76%
    12:00 +10°C° 1.3 mm 2 mps 735 mmHg 81%
    13:00 +10°C° 1.3 mm 3 mps 735 mmHg 85%
    14:00 +9°C° 1.3 mm 3 mps 734 mmHg 90%
    15:00 +8°C° 1.9 mm 4 mps 733 mmHg 91%
    16:00 +7°C° 1.9 mm 4 mps 732 mmHg 92%
    17:00 +7°C° 1.9 mm 4 mps 731 mmHg 93%
    18:00 +7°C° 1.9 mm 5 mps 730 mmHg 93%
    19:00 +7°C° 1.9 mm 5 mps 729 mmHg 93%
    20:00 +5°C° 1.9 mm 6 mps 729 mmHg 93%
    21:00 +5°C° 1.9 mm 7 mps 728 mmHg 92%
    22:00 +5°C° 1.9 mm 7 mps 728 mmHg 92%
    23:00 +5°C° 1.9 mm 8 mps 728 mmHg 91%

    25 September, Tuesday

    Time Temperature Precipitation Wind Pressure Humidity
    00:00 +5°C° 1.2 mm 8 mps 728 mmHg 90%
    01:00 +5°C° 1.2 mm 8 mps 729 mmHg 89%
    02:00 +5°C° 1.2 mm 9 mps 729 mmHg 88%
    03:00 +4°C° 0.5 mm 8 mps 730 mmHg 87%
    04:00 +4°C° 0.5 mm 8 mps 731 mmHg 86%
    05:00 +4°C° 0.5 mm 8 mps 731 mmHg 86%
    06:00 +4°C° 0.2 mm 8 mps 732 mmHg 85%
    07:00 +4°C° 0.2 mm 8 mps 733 mmHg 84%
    08:00 +4°C° 0.2 mm 8 mps 734 mmHg 84%
    09:00 +4°C° 0.1 mm 8 mps 735 mmHg 80%
    10:00 +4°C° 0.1 mm 7 mps 735 mmHg 77%
    11:00 +5°C° 0.1 mm 7 mps 736 mmHg 74%
    12:00 +5°C° 0.1 mm 7 mps 737 mmHg 68%
    13:00 +6°C° 0.1 mm 7 mps 738 mmHg 63%
    14:00 +8°C° 0.1 mm 7 mps 738 mmHg 58%
    15:00 +6°C° 0 mm 7 mps 739 mmHg 59%
    16:00 +7°C° 0 mm 6 mps 739 mmHg 60%
    17:00 +6°C° 0 mm 5 mps 740 mmHg 61%
    18:00 +5°C° 0 mm 5 mps 740 mmHg 63%
    19:00 +3°C° 0 mm 5 mps 741 mmHg 65%
    20:00 +3°C° 0 mm 4 mps 741 mmHg 67%
    21:00 +3°C° 0 mm 4 mps 741 mmHg 68%
    22:00 +1°C° 0 mm 4 mps 741 mmHg 70%
    23:00 +2°C° 0 mm 3 mps 741 mmHg 71%

    26 September, Wednesday

    Time Temperature Precipitation Wind Pressure Humidity
    00:00 +1°C° 0 mm 3 mps 741 mmHg 76%
    01:00 +2°C° 0 mm 2 mps 741 mmHg 80%
    02:00 +1°C° 0 mm 2 mps 742 mmHg 84%
    03:00 +1°C° 0 mm 2 mps 742 mmHg 87%
    04:00 +2°C° 0 mm 1 mps 742 mmHg 89%
    05:00 +2°C° 0 mm 1 mps 742 mmHg 92%
    06:00 +3°C° 0 mm 1 mps 742 mmHg 86%
    07:00 +4°C° 0 mm 1 mps 743 mmHg 81%
    08:00 +5°C° 0 mm 1 mps 743 mmHg 75%
    09:00 +5°C° 0 mm 2 mps 744 mmHg 66%
    10:00 +7°C° 0 mm 2 mps 745 mmHg 58%
    11:00 +8°C° 0 mm 2 mps 745 mmHg 49%
    12:00 +8°C° 0 mm 3 mps 746 mmHg 48%
    13:00 +9°C° 0 mm 3 mps 746 mmHg 46%
    14:00 +9°C° 0 mm 3 mps 747 mmHg 44%
    15:00 +8°C° 0 mm 2 mps 747 mmHg 49%
    16:00 +7°C° 0 mm 2 mps 747 mmHg 54%
    17:00 +8°C° 0 mm 1 mps 748 mmHg 60%
    18:00 +6°C° 0 mm 1 mps 748 mmHg 62%
    19:00 +5°C° 0 mm 1 mps 748 mmHg 65%
    20:00 +4°C° 0 mm 1 mps 749 mmHg 68%
    21:00 +4°C° 0 mm 1 mps 749 mmHg 70%
    22:00 +4°C° 0 mm 1 mps 749 mmHg 73%
    23:00 +3°C° 0 mm 2 mps 749 mmHg 76%

    27 September, Thursday

    Time Temperature Precipitation Wind Pressure Humidity
    00:00 +3°C° 0 mm 2 mps 749 mmHg 79%
    01:00 +3°C° 0 mm 3 mps 748 mmHg 82%
    02:00 +3°C° 0 mm 3 mps 748 mmHg 85%
    03:00 +4°C° 0 mm 3 mps 747 mmHg 84%
    04:00 +4°C° 0 mm 4 mps 747 mmHg 83%
    05:00 +5°C° 0 mm 4 mps 746 mmHg 82%
    06:00 +5°C° 0.3 mm 5 mps 745 mmHg 82%
    07:00 +4°C° 0.3 mm 6 mps 745 mmHg 82%
    08:00 +5°C° 0.3 mm 6 mps 744 mmHg 82%
    09:00 +5°C° 1.5 mm 7 mps 743 mmHg 85%
    10:00 +5°C° 1.5 mm 7 mps 742 mmHg 88%
    11:00 +6°C° 1.5 mm 7 mps 742 mmHg 91%
    12:00 +6°C° 1.5 mm 7 mps 741 mmHg 91%
    13:00 +8°C° 1.5 mm 7 mps 741 mmHg 91%
    14:00 +8°C° 1.5 mm 7 mps 740 mmHg 91%
    15:00 +8°C° 0.8 mm 7 mps 740 mmHg 91%
    16:00 +8°C° 0.8 mm 7 mps 739 mmHg 92%
    17:00 +8°C° 0.8 mm 7 mps 739 mmHg 92%
    18:00 +8°C° 0.3 mm 7 mps 739 mmHg 92%
    19:00 +8°C° 0.3 mm 7 mps 738 mmHg 92%
    20:00 +8°C° 0.3 mm 6 mps 738 mmHg 92%
    21:00 +8°C° 0.5 mm 6 mps 738 mmHg 92%
    22:00 +9°C° 0.5 mm 6 mps 737 mmHg 92%
    23:00 +9°C° 0.5 mm 6 mps 737 mmHg 92%
    Show more